HVDC transfer

From www.emi.ea.govt.nz provided by the Electricity Authority (New Zealand)
Run at: 20240520121014

Parameters
Date range,08 May 2024 - 08 May 2024
Time scale,Trading period
Show,Average flow (MW)

Period start,Period end,Trading period,Direction,Energy transfer (GWh),Peak flow (MW),Average flow (MW)
08/05/2024 00:00:00,08/05/2024 00:30:00,1,Northward at Haywards,0.033,66,66
08/05/2024 00:30:00,08/05/2024 01:00:00,2,Northward at Haywards,0.024,47,47
08/05/2024 01:00:00,08/05/2024 01:30:00,3,Northward at Haywards,0.018,35,35
08/05/2024 01:30:00,08/05/2024 02:00:00,4,Southward at Benmore,-0.002,-5,-5
08/05/2024 02:00:00,08/05/2024 02:30:00,5,Southward at Benmore,-0.006,-12,-12
08/05/2024 02:30:00,08/05/2024 03:00:00,6,Southward at Benmore,-0.011,-23,-23
08/05/2024 03:00:00,08/05/2024 03:30:00,7,Northward at Haywards,0.019,37,37
08/05/2024 03:30:00,08/05/2024 04:00:00,8,Northward at Haywards,0.012,24,24
08/05/2024 04:00:00,08/05/2024 04:30:00,9,Northward at Haywards,0.037,73,73
08/05/2024 04:30:00,08/05/2024 05:00:00,10,Northward at Haywards,0.046,92,92
08/05/2024 05:00:00,08/05/2024 05:30:00,11,Northward at Haywards,0.085,169,169
08/05/2024 05:30:00,08/05/2024 06:00:00,12,Northward at Haywards,0.144,288,288
08/05/2024 06:00:00,08/05/2024 06:30:00,13,Northward at Haywards,0.188,375,375
08/05/2024 06:30:00,08/05/2024 07:00:00,14,Northward at Haywards,0.243,486,486
08/05/2024 07:00:00,08/05/2024 07:30:00,15,Northward at Haywards,0.308,615,615
08/05/2024 07:30:00,08/05/2024 08:00:00,16,Northward at Haywards,0.321,642,642
08/05/2024 08:00:00,08/05/2024 08:30:00,17,Northward at Haywards,0.336,672,672
08/05/2024 08:30:00,08/05/2024 09:00:00,18,Northward at Haywards,0.326,652,652
08/05/2024 09:00:00,08/05/2024 09:30:00,19,Northward at Haywards,0.338,675,675
08/05/2024 09:30:00,08/05/2024 10:00:00,20,Northward at Haywards,0.329,658,658
08/05/2024 10:00:00,08/05/2024 10:30:00,21,Northward at Haywards,0.319,637,637
08/05/2024 10:30:00,08/05/2024 11:00:00,22,Northward at Haywards,0.303,605,605
08/05/2024 11:00:00,08/05/2024 11:30:00,23,Northward at Haywards,0.298,596,596
08/05/2024 11:30:00,08/05/2024 12:00:00,24,Northward at Haywards,0.300,600,600
08/05/2024 12:00:00,08/05/2024 12:30:00,25,Northward at Haywards,0.309,617,617
08/05/2024 12:30:00,08/05/2024 13:00:00,26,Northward at Haywards,0.285,570,570
08/05/2024 13:00:00,08/05/2024 13:30:00,27,Northward at Haywards,0.283,565,565
08/05/2024 13:30:00,08/05/2024 14:00:00,28,Northward at Haywards,0.289,577,577
08/05/2024 14:00:00,08/05/2024 14:30:00,29,Northward at Haywards,0.292,584,584
08/05/2024 14:30:00,08/05/2024 15:00:00,30,Northward at Haywards,0.289,578,578
08/05/2024 15:00:00,08/05/2024 15:30:00,31,Northward at Haywards,0.258,515,515
08/05/2024 15:30:00,08/05/2024 16:00:00,32,Northward at Haywards,0.282,563,563
08/05/2024 16:00:00,08/05/2024 16:30:00,33,Northward at Haywards,0.299,598,598
08/05/2024 16:30:00,08/05/2024 17:00:00,34,Northward at Haywards,0.306,611,611
08/05/2024 17:00:00,08/05/2024 17:30:00,35,Northward at Haywards,0.309,618,618
08/05/2024 17:30:00,08/05/2024 18:00:00,36,Northward at Haywards,0.310,620,620
08/05/2024 18:00:00,08/05/2024 18:30:00,37,Northward at Haywards,0.309,617,617
08/05/2024 18:30:00,08/05/2024 19:00:00,38,Northward at Haywards,0.313,626,626
08/05/2024 19:00:00,08/05/2024 19:30:00,39,Northward at Haywards,0.327,654,654
08/05/2024 19:30:00,08/05/2024 20:00:00,40,Northward at Haywards,0.320,640,640
08/05/2024 20:00:00,08/05/2024 20:30:00,41,Northward at Haywards,0.326,651,651
08/05/2024 20:30:00,08/05/2024 21:00:00,42,Northward at Haywards,0.338,675,675
08/05/2024 21:00:00,08/05/2024 21:30:00,43,Northward at Haywards,0.354,707,707
08/05/2024 21:30:00,08/05/2024 22:00:00,44,Northward at Haywards,0.359,717,717
08/05/2024 22:00:00,08/05/2024 22:30:00,45,Northward at Haywards,0.253,505,505
08/05/2024 22:30:00,08/05/2024 23:00:00,46,Northward at Haywards,0.167,334,334
08/05/2024 23:00:00,08/05/2024 23:30:00,47,Northward at Haywards,0.115,229,229
08/05/2024 23:30:00,09/05/2024 00:00:00,48,Northward at Haywards,0.055,109,109
